Time,TemperatureF,DewpointF,PressureIn,WindDirection,WindDirectionDegrees,WindSpeedMPH,WindSpeedGustMPH,Humidity,HourlyPrecipIn,Conditions,Clouds,dailyrainin,SoftwareType,DateUTC
2013-02-10 00:01:00,16.0,11.0,29.84,East,80,8.0,20.0,79,0.00,,,0.00,,2013-02-10 05:01:00,
2013-02-10 00:11:00,16.0,11.0,29.84,East,80,8.0,20.0,79,0.00,,,0.00,,2013-02-10 05:11:00,
2013-02-10 00:22:00,16.0,11.0,29.85,East,86,11.0,22.0,79,0.00,,,0.00,,2013-02-10 05:22:00,
2013-02-10 00:32:00,16.0,11.0,29.85,East,94,12.0,20.0,79,0.00,,,0.00,,2013-02-10 05:32:00,
2013-02-10 00:41:00,16.0,11.0,29.85,East,94,12.0,20.0,79,0.00,,,0.00,,2013-02-10 05:41:00,
2013-02-10 00:52:00,16.0,10.0,29.86,East,92,8.0,24.0,78,0.00,,,0.00,,2013-02-10 05:52:00,
2013-02-10 01:02:00,16.0,10.0,29.86,East,85,10.0,20.0,78,0.00,,,0.00,,2013-02-10 06:02:00,
2013-02-10 01:11:00,16.0,10.0,29.86,East,85,10.0,20.0,78,0.00,,,0.00,,2013-02-10 06:11:00,
2013-02-10 01:21:00,16.0,10.0,29.87,East,98,10.0,19.0,77,0.00,,,0.00,,2013-02-10 06:21:00,
2013-02-10 01:32:00,16.0,10.0,29.88,East,85,10.0,23.0,77,0.00,,,0.00,,2013-02-10 06:32:00,
2013-02-10 01:42:00,16.0,10.0,29.88,East,85,10.0,23.0,77,0.00,,,0.00,,2013-02-10 06:42:00,
2013-02-10 01:51:00,16.0,10.0,29.88,East,79,6.0,16.0,78,0.00,,,0.00,,2013-02-10 06:51:00,
2013-02-10 02:01:00,16.0,10.0,29.89,East,80,6.0,20.0,78,0.00,,,0.00,,2013-02-10 07:01:00,
2013-02-10 02:11:00,16.0,10.0,29.89,East,80,6.0,20.0,78,0.00,,,0.00,,2013-02-10 07:11:00,
2013-02-10 02:21:00,16.0,10.0,29.89,East,79,10.0,19.0,77,0.00,,,0.00,,2013-02-10 07:21:00,
2013-02-10 02:32:00,16.0,10.0,29.89,East,80,10.0,19.0,76,0.00,,,0.00,,2013-02-10 07:32:00,
2013-02-10 02:42:00,16.0,10.0,29.89,East,80,10.0,19.0,76,0.00,,,0.00,,2013-02-10 07:42:00,
2013-02-10 02:51:00,16.0,9.0,29.90,ENE,72,9.0,21.0,75,0.00,,,0.00,,2013-02-10 07:51:00,
2013-02-10 03:01:00,15.0,9.0,29.90,ENE,72,11.0,19.0,77,0.00,,,0.00,,2013-02-10 08:01:00,
2013-02-10 03:11:00,15.0,9.0,29.90,ENE,72,11.0,19.0,77,0.00,,,0.00,,2013-02-10 08:11:00,
2013-02-10 03:21:00,15.0,9.0,29.91,ENE,67,12.0,22.0,75,0.00,,,0.00,,2013-02-10 08:21:00,
2013-02-10 03:32:00,15.0,8.0,29.91,NE,41,10.0,21.0,73,0.00,,,0.00,,2013-02-10 08:32:00,
2013-02-10 03:43:00,15.0,8.0,29.91,NE,41,10.0,21.0,73,0.00,,,0.00,,2013-02-10 08:43:00,
2013-02-10 03:52:00,15.0,8.0,29.91,ENE,62,9.0,25.0,73,0.00,,,0.00,,2013-02-10 08:52:00,
2013-02-10 04:02:00,14.0,7.0,29.93,ESE,116,8.0,20.0,72,0.00,,,0.00,,2013-02-10 09:02:00,
2013-02-10 04:11:00,14.0,7.0,29.93,ESE,116,8.0,20.0,72,0.00,,,0.00,,2013-02-10 09:11:00,
2013-02-10 04:21:00,14.0,6.0,29.93,ENE,72,8.0,20.0,70,0.00,,,0.00,,2013-02-10 09:21:00,
2013-02-10 04:32:00,15.0,7.0,29.93,East,80,9.0,18.0,70,0.00,,,0.00,,2013-02-10 09:32:00,
2013-02-10 04:42:00,15.0,7.0,29.93,East,80,9.0,18.0,70,0.00,,,0.00,,2013-02-10 09:42:00,
2013-02-10 04:51:00,15.0,6.0,29.93,East,101,10.0,19.0,68,0.00,,,0.00,,2013-02-10 09:51:00,
2013-02-10 05:01:00,15.0,7.0,29.94,East,81,8.0,24.0,69,0.00,,,0.00,,2013-02-10 10:01:00,
2013-02-10 05:11:00,15.0,6.0,29.94,East,98,9.0,19.0,68,0.00,,,0.00,,2013-02-10 10:11:00,
2013-02-10 05:21:00,15.0,6.0,29.94,East,98,9.0,19.0,68,0.00,,,0.00,,2013-02-10 10:21:00,
2013-02-10 05:32:00,15.0,7.0,29.95,NE,51,8.0,23.0,69,0.00,,,0.00,,2013-02-10 10:32:00,
2013-02-10 05:42:00,15.0,7.0,29.95,NE,51,8.0,23.0,69,0.00,,,0.00,,2013-02-10 10:42:00,
2013-02-10 05:51:00,14.0,6.0,29.96,ESE,110,9.0,17.0,69,0.00,,,0.00,,2013-02-10 10:51:00,
2013-02-10 06:01:00,14.0,5.0,29.96,East,79,12.0,21.0,68,0.00,,,0.00,,2013-02-10 11:01:00,
2013-02-10 06:11:00,14.0,5.0,29.96,East,79,12.0,21.0,68,0.00,,,0.00,,2013-02-10 11:11:00,
2013-02-10 06:22:00,14.0,6.0,29.96,East,86,10.0,20.0,69,0.00,,,0.00,,2013-02-10 11:22:00,
2013-02-10 06:32:00,14.0,5.0,29.97,ENE,72,8.0,20.0,68,0.00,,,0.00,,2013-02-10 11:32:00,
2013-02-10 06:42:00,14.0,5.0,29.97,ENE,72,8.0,20.0,68,0.00,,,0.00,,2013-02-10 11:42:00,
2013-02-10 06:52:00,14.0,5.0,29.98,East,79,7.0,16.0,68,0.00,,,0.00,,2013-02-10 11:52:00,
2013-02-10 07:02:00,14.0,5.0,29.99,East,86,9.0,19.0,68,0.00,,,0.00,,2013-02-10 12:02:00,
2013-02-10 07:12:00,14.0,5.0,29.99,East,86,9.0,19.0,68,0.00,,,0.00,,2013-02-10 12:12:00,
2013-02-10 07:21:00,14.0,5.0,30.00,ENE,74,4.0,16.0,68,0.00,,,0.00,,2013-02-10 12:21:00,
2013-02-10 07:32:00,14.0,4.0,30.01,ESE,104,11.0,19.0,64,0.00,,,0.00,,2013-02-10 12:32:00,
2013-02-10 07:42:00,14.0,4.0,30.01,ESE,104,11.0,19.0,64,0.00,,,0.00,,2013-02-10 12:42:00,
2013-02-10 07:52:00,14.0,4.0,30.01,ESE,117,8.0,19.0,64,0.00,,,0.00,,2013-02-10 12:52:00,
2013-02-10 08:02:00,15.0,4.0,30.01,East,83,7.0,19.0,62,0.00,,,0.00,,2013-02-10 13:02:00,
2013-02-10 08:11:00,15.0,4.0,30.01,East,83,7.0,19.0,62,0.00,,,0.00,,2013-02-10 13:11:00,
2013-02-10 08:21:00,15.0,5.0,30.02,East,79,12.0,20.0,63,0.00,,,0.00,,2013-02-10 13:21:00,
2013-02-10 08:31:00,16.0,5.0,30.02,East,91,7.0,20.0,62,0.00,,,0.00,,2013-02-10 13:31:00,
2013-02-10 08:41:00,16.0,5.0,30.02,East,91,7.0,20.0,62,0.00,,,0.00,,2013-02-10 13:41:00,
2013-02-10 08:51:00,16.0,5.0,30.03,East,101,8.0,16.0,61,0.00,,,0.00,,2013-02-10 13:51:00,
2013-02-10 09:02:00,17.0,6.0,30.04,NE,53,6.0,14.0,60,0.00,,,0.00,,2013-02-10 14:02:00,
2013-02-10 09:11:00,17.0,6.0,30.04,NE,53,6.0,14.0,60,0.00,,,0.00,,2013-02-10 14:11:00,
2013-02-10 09:21:00,18.0,6.0,30.04,ENE,63,7.0,16.0,59,0.00,,,0.00,,2013-02-10 14:21:00,
2013-02-10 09:32:00,19.0,6.0,30.05,ESE,109,9.0,16.0,57,0.00,,,0.00,,2013-02-10 14:32:00,
2013-02-10 09:41:00,19.0,6.0,30.05,ESE,109,9.0,16.0,57,0.00,,,0.00,,2013-02-10 14:41:00,
2013-02-10 09:52:00,19.0,6.0,30.05,East,84,13.0,20.0,56,0.00,,,0.00,,2013-02-10 14:52:00,
2013-02-10 10:02:00,20.0,7.0,30.05,East,95,9.0,18.0,56,0.00,,,0.00,,2013-02-10 15:02:00,
2013-02-10 10:11:00,20.0,7.0,30.05,East,95,9.0,18.0,56,0.00,,,0.00,,2013-02-10 15:11:00,
2013-02-10 10:22:00,21.0,6.0,30.06,East,84,14.0,20.0,52,0.00,,,0.00,,2013-02-10 15:22:00,
2013-02-10 10:32:00,22.0,6.0,30.06,ENE,60,11.0,20.0,50,0.00,,,0.00,,2013-02-10 15:32:00,
2013-02-10 10:42:00,22.0,6.0,30.06,ENE,60,11.0,20.0,50,0.00,,,0.00,,2013-02-10 15:42:00,
2013-02-10 10:52:00,23.0,9.0,30.07,East,96,10.0,18.0,54,0.00,,,0.00,,2013-02-10 15:52:00,
2013-02-10 11:02:00,23.0,8.0,30.07,ENE,58,9.0,15.0,51,0.00,,,0.00,,2013-02-10 16:02:00,
2013-02-10 11:12:00,24.0,8.0,30.07,ENE,58,9.0,15.0,50,0.00,,,0.00,,2013-02-10 16:12:00,
2013-02-10 11:22:00,24.0,8.0,30.07,ENE,58,9.0,15.0,50,0.00,,,0.00,,2013-02-10 16:22:00,
2013-02-10 11:32:00,24.0,9.0,30.07,East,86,6.0,17.0,51,0.00,,,0.00,,2013-02-10 16:32:00,
2013-02-10 11:42:00,25.0,9.0,30.07,ENE,59,5.0,15.0,51,0.00,,,0.00,,2013-02-10 16:42:00,
2013-02-10 11:52:00,25.0,9.0,30.07,ENE,59,5.0,15.0,51,0.00,,,0.00,,2013-02-10 16:52:00,
2013-02-10 12:02:00,26.0,10.0,30.07,East,79,5.0,14.0,50,0.00,,,0.00,,2013-02-10 17:02:00,
2013-02-10 12:11:00,26.0,10.0,30.07,East,79,5.0,14.0,50,0.00,,,0.00,,2013-02-10 17:11:00,
2013-02-10 12:22:00,27.0,9.0,30.07,ENE,74,5.0,12.0,46,0.00,,,0.00,,2013-02-10 17:22:00,
2013-02-10 12:32:00,27.0,10.0,30.07,NE,53,5.0,13.0,48,0.00,,,0.00,,2013-02-10 17:32:00,
2013-02-10 12:42:00,27.0,9.0,30.07,East,84,8.0,14.0,45,0.00,,,0.00,,2013-02-10 17:42:00,
2013-02-10 12:52:00,27.0,9.0,30.07,East,84,8.0,14.0,45,0.00,,,0.00,,2013-02-10 17:52:00,
2013-02-10 13:02:00,28.0,10.0,30.07,NE,49,4.0,13.0,46,0.00,,,0.00,,2013-02-10 18:02:00,
2013-02-10 13:12:00,29.0,10.0,30.07,ENE,63,7.0,14.0,44,0.00,,,0.00,,2013-02-10 18:12:00,
2013-02-10 13:22:00,29.0,10.0,30.07,ENE,63,7.0,14.0,44,0.00,,,0.00,,2013-02-10 18:22:00,
2013-02-10 13:32:00,29.0,12.0,30.07,ENE,57,5.0,13.0,48,0.00,,,0.00,,2013-02-10 18:32:00,
2013-02-10 13:42:00,29.0,12.0,30.07,ENE,57,5.0,13.0,48,0.00,,,0.00,,2013-02-10 18:42:00,
2013-02-10 13:52:00,29.0,10.0,30.07,NE,37,7.0,13.0,44,0.00,,,0.00,,2013-02-10 18:52:00,
2013-02-10 14:02:00,30.0,10.0,30.06,East,90,6.0,15.0,42,0.00,,,0.00,,2013-02-10 19:02:00,
2013-02-10 14:12:00,30.0,9.0,30.06,East,85,9.0,15.0,41,0.00,,,0.00,,2013-02-10 19:12:00,
2013-02-10 14:22:00,30.0,9.0,30.06,East,85,9.0,15.0,41,0.00,,,0.00,,2013-02-10 19:22:00,
2013-02-10 14:32:00,31.0,9.0,30.06,ENE,75,7.0,12.0,39,0.00,,,0.00,,2013-02-10 19:32:00,
2013-02-10 14:42:00,31.0,10.0,30.06,East,82,8.0,14.0,41,0.00,,,0.00,,2013-02-10 19:42:00,
2013-02-10 14:52:00,31.0,10.0,30.06,East,82,8.0,14.0,41,0.00,,,0.00,,2013-02-10 19:52:00,
2013-02-10 15:02:00,31.0,8.0,30.06,ENE,75,5.0,15.0,38,0.00,,,0.00,,2013-02-10 20:02:00,
2013-02-10 15:11:00,31.0,8.0,30.06,ENE,75,5.0,15.0,38,0.00,,,0.00,,2013-02-10 20:11:00,
2013-02-10 15:22:00,32.0,10.0,30.07,East,79,5.0,11.0,39,0.00,,,0.00,,2013-02-10 20:22:00,
2013-02-10 15:32:00,32.0,9.0,30.06,East,82,6.0,11.0,38,0.00,,,0.00,,2013-02-10 20:32:00,
2013-02-10 15:42:00,32.0,10.0,30.06,ENE,59,5.0,11.0,40,0.00,,,0.00,,2013-02-10 20:42:00,
2013-02-10 15:52:00,32.0,10.0,30.06,ENE,59,5.0,11.0,40,0.00,,,0.00,,2013-02-10 20:52:00,
2013-02-10 16:02:00,32.0,11.0,30.07,ENE,57,4.0,9.0,41,0.00,,,0.00,,2013-02-10 21:02:00,
2013-02-10 16:11:00,32.0,11.0,30.07,ENE,57,4.0,9.0,41,0.00,,,0.00,,2013-02-10 21:11:00,
2013-02-10 16:22:00,32.0,10.0,30.07,East,84,7.0,13.0,39,0.00,,,0.00,,2013-02-10 21:22:00,
2013-02-10 16:32:00,31.0,8.0,30.08,East,80,8.0,13.0,37,0.00,,,0.00,,2013-02-10 21:32:00,
2013-02-10 16:42:00,31.0,10.0,30.08,East,83,2.0,10.0,40,0.00,,,0.00,,2013-02-10 21:42:00,
2013-02-10 16:52:00,31.0,10.0,30.08,East,83,2.0,10.0,40,0.00,,,0.00,,2013-02-10 21:52:00,
2013-02-10 17:02:00,31.0,11.0,30.09,ENE,66,4.0,8.0,43,0.00,,,0.00,,2013-02-10 22:02:00,
2013-02-10 17:11:00,30.0,11.0,30.10,NE,52,2.0,6.0,45,0.00,,,0.00,,2013-02-10 22:11:00,
2013-02-10 17:22:00,30.0,11.0,30.10,NE,52,2.0,6.0,45,0.00,,,0.00,,2013-02-10 22:22:00,
2013-02-10 17:32:00,30.0,12.0,30.12,NE,43,1.0,6.0,47,0.00,,,0.00,,2013-02-10 22:32:00,
2013-02-10 17:42:00,29.0,11.0,30.12,NE,44,2.0,5.0,46,0.00,,,0.00,,2013-02-10 22:42:00,
2013-02-10 17:53:00,29.0,11.0,30.12,NE,44,2.0,5.0,46,0.00,,,0.00,,2013-02-10 22:53:00,
2013-02-10 18:02:00,29.0,11.0,30.12,NE,44,2.0,5.0,46,0.00,,,0.00,,2013-02-10 23:02:00,
2013-02-10 18:11:00,29.0,11.0,30.12,NE,44,2.0,5.0,46,0.00,,,0.00,,2013-02-10 23:11:00,
2013-02-10 18:22:00,29.0,12.0,30.13,NE,49,2.0,4.0,48,0.00,,,0.00,,2013-02-10 23:22:00,
2013-02-10 18:32:00,29.0,13.0,30.12,NE,49,1.0,4.0,50,0.00,,,0.00,,2013-02-10 23:32:00,
2013-02-10 18:42:00,28.0,12.0,30.12,NE,49,2.0,4.0,50,0.00,,,0.00,,2013-02-10 23:42:00,
2013-02-10 18:52:00,28.0,12.0,30.12,NE,49,2.0,4.0,50,0.00,,,0.00,,2013-02-10 23:52:00,
2013-02-10 19:02:00,28.0,12.0,30.12,NE,49,2.0,4.0,50,0.00,,,0.00,,2013-02-11 00:02:00,
2013-02-10 19:11:00,28.0,12.0,30.13,NE,41,1.0,4.0,51,0.00,,,0.00,,2013-02-11 00:11:00,
2013-02-10 19:22:00,28.0,12.0,30.13,NE,41,1.0,4.0,51,0.00,,,0.00,,2013-02-11 00:22:00,
2013-02-10 19:32:00,28.0,13.0,30.14,NE,52,2.0,8.0,53,0.00,,,0.00,,2013-02-11 00:32:00,
2013-02-10 19:42:00,28.0,13.0,30.14,NE,53,1.0,4.0,53,0.00,,,0.00,,2013-02-11 00:42:00,
2013-02-10 19:52:00,28.0,13.0,30.14,NE,53,1.0,4.0,53,0.00,,,0.00,,2013-02-11 00:52:00,
2013-02-10 20:01:00,28.0,14.0,30.14,ENE,74,5.0,8.0,54,0.00,,,0.00,,2013-02-11 01:01:00,
2013-02-10 20:21:00,27.0,11.0,30.14,ENE,70,3.0,7.0,51,0.00,,,0.00,,2013-02-11 01:21:00,
2013-02-10 20:32:00,27.0,10.0,30.14,ENE,75,4.0,11.0,48,0.00,,,0.00,,2013-02-11 01:32:00,
2013-02-10 20:42:00,26.0,9.0,30.13,East,97,2.0,7.0,47,0.00,,,0.00,,2013-02-11 01:42:00,
2013-02-10 20:52:00,26.0,9.0,30.13,East,97,2.0,7.0,47,0.00,,,0.00,,2013-02-11 01:52:00,
2013-02-10 21:01:00,27.0,9.0,30.13,East,98,4.0,9.0,46,0.00,,,0.00,,2013-02-11 02:01:00,
2013-02-10 21:21:00,26.0,9.0,30.12,ESE,102,4.0,8.0,47,0.00,,,0.00,,2013-02-11 02:21:00,
2013-02-10 21:32:00,26.0,9.0,30.12,ESE,112,5.0,10.0,47,0.00,,,0.00,,2013-02-11 02:32:00,
2013-02-10 21:42:00,25.0,9.0,30.12,ESE,113,2.0,7.0,49,0.00,,,0.00,,2013-02-11 02:42:00,
2013-02-10 21:52:00,25.0,9.0,30.12,ESE,113,2.0,7.0,49,0.00,,,0.00,,2013-02-11 02:52:00,
2013-02-10 22:02:00,25.0,9.0,30.12,ESE,115,1.0,7.0,50,0.00,,,0.00,,2013-02-11 03:02:00,
2013-02-10 22:11:00,24.0,10.0,30.12,ESE,115,0.0,1.0,54,0.00,,,0.00,,2013-02-11 03:11:00,
2013-02-10 22:21:00,24.0,10.0,30.12,ESE,115,0.0,1.0,54,0.00,,,0.00,,2013-02-11 03:21:00,
2013-02-10 22:32:00,23.0,11.0,30.12,ESE,115,0.0,0.0,60,0.00,,,0.00,,2013-02-11 03:32:00,
2013-02-10 22:42:00,24.0,13.0,30.12,ESE,115,0.0,3.0,62,0.00,,,0.00,,2013-02-11 03:42:00,
2013-02-10 22:52:00,24.0,13.0,30.12,ESE,115,0.0,3.0,62,0.00,,,0.00,,2013-02-11 03:52:00,
2013-02-10 23:01:00,24.0,13.0,30.12,ESE,115,1.0,3.0,62,0.00,,,0.00,,2013-02-11 04:01:00,
2013-02-10 23:22:00,24.0,11.0,30.13,ESE,110,1.0,5.0,58,0.00,,,0.00,,2013-02-11 04:22:00,
2013-02-10 23:32:00,24.0,11.0,30.12,ESE,110,3.0,5.0,58,0.00,,,0.00,,2013-02-11 04:32:00,
2013-02-10 23:42:00,24.0,11.0,30.12,ESE,110,3.0,4.0,58,0.00,,,0.00,,2013-02-11 04:42:00,
2013-02-10 23:52:00,24.0,11.0,30.12,ESE,110,3.0,4.0,58,0.00,,,0.00,,2013-02-11 04:52:00,